Wolke Sonne

Wetter Roßtal

Gehe zu: Ammerndorf | Roßtal 2

Tageswerte vom Mittwoch, 22.01.2020

Optionen

Tag:
Erweitert:

Alle Werte vom Mittwoch, 22.01.2020

Einen Moment bitte, die Daten werden aufbereitet...

UhrzeitTemperaturFeuchteLuftdruckNiederschlagEvapotranspirationNiederschlag?WindWindböenRegenrateWindrichtungHelligkeitSolarstrahlungUV-IndexSonne?Feinstaub 10µmUhrzeit
Diagramm IconDiagramm IconDiagramm IconDiagramm IconDiagramm IconDiagramm IconDiagramm IconDiagramm IconDiagramm IconDiagramm IconDiagramm IconDiagramm IconDiagramm IconDiagramm IconDiagramm Icon
00:00-2,2 °C 92 % 1040,8 hPa 0,0 mm 0,0 mm nein 0,0 km/h 1,6 km/h 0,0 mm/h OSO 0,000 klux 0,0 W/qm 0,0 nein - 00:00
00:05-2,2 °C 92 % 1040,6 hPa 0,0 mm 0,0 mm nein 0,0 km/h 0,0 km/h 0,0 mm/h N 0,000 klux 0,0 W/qm 0,0 nein - 00:05
00:10-2,2 °C 92 % 1040,4 hPa 0,0 mm 0,0 mm nein 0,0 km/h 1,6 km/h 0,0 mm/h OSO 0,000 klux 0,0 W/qm 0,0 nein - 00:10
00:15-2,2 °C 92 % 1040,3 hPa 0,0 mm 0,0 mm nein 0,0 km/h 0,0 km/h 0,0 mm/h N 0,000 klux 0,0 W/qm 0,0 nein - 00:15
00:20-2,2 °C 92 % 1040,4 hPa 0,0 mm 0,0 mm nein 0,0 km/h 0,0 km/h 0,0 mm/h N 0,000 klux 0,0 W/qm 0,0 nein - 00:20
00:25-2,2 °C 92 % 1040,4 hPa 0,0 mm 0,0 mm nein 0,0 km/h 1,6 km/h 0,0 mm/h OSO 0,000 klux 0,0 W/qm 0,0 nein - 00:25
00:30-2,2 °C 92 % 1040,5 hPa 0,0 mm 0,0 mm nein 0,0 km/h 0,0 km/h 0,0 mm/h N 0,000 klux 0,0 W/qm 0,0 nein - 00:30
00:35-2,2 °C 92 % 1040,6 hPa 0,0 mm 0,0 mm nein 0,0 km/h 0,0 km/h 0,0 mm/h N 0,000 klux 0,0 W/qm 0,0 nein - 00:35
00:40-2,2 °C 92 % 1040,4 hPa 0,0 mm 0,0 mm nein 0,0 km/h 0,0 km/h 0,0 mm/h N 0,000 klux 0,0 W/qm 0,0 nein - 00:40
00:45-2,2 °C 92 % 1040,3 hPa 0,0 mm 0,0 mm nein 0,0 km/h 1,6 km/h 0,0 mm/h O 0,000 klux 0,0 W/qm 0,0 nein - 00:45
00:50-2,2 °C 92 % 1040,3 hPa 0,0 mm 0,0 mm nein 0,0 km/h 0,0 km/h 0,0 mm/h N 0,000 klux 0,0 W/qm 0,0 nein - 00:50
00:55-2,2 °C 92 % 1040,2 hPa 0,0 mm 0,0 mm nein 0,0 km/h 0,0 km/h 0,0 mm/h N 0,000 klux 0,0 W/qm 0,0 nein - 00:55
01:00-2,2 °C 92 % 1040,1 hPa 0,0 mm 0,0 mm nein 0,0 km/h 0,0 km/h 0,0 mm/h N 0,000 klux 0,0 W/qm 0,0 nein - 01:00
01:05-2,2 °C 92 % 1040,1 hPa 0,0 mm 0,0 mm nein 0,0 km/h 0,0 km/h 0,0 mm/h N 0,000 klux 0,0 W/qm 0,0 nein - 01:05
01:10-2,2 °C 92 % 1040,0 hPa 0,0 mm 0,0 mm nein 0,0 km/h 0,0 km/h 0,0 mm/h N 0,000 klux 0,0 W/qm 0,0 nein - 01:10
01:15-2,2 °C 92 % 1039,9 hPa 0,0 mm 0,0 mm nein 0,0 km/h 0,0 km/h 0,0 mm/h N 0,000 klux 0,0 W/qm 0,0 nein - 01:15
01:20-2,2 °C 92 % 1039,7 hPa 0,0 mm 0,0 mm nein 0,0 km/h 0,0 km/h 0,0 mm/h N 0,000 klux 0,0 W/qm 0,0 nein - 01:20
01:25-2,2 °C 92 % 1039,6 hPa 0,0 mm 0,0 mm nein 0,0 km/h 0,0 km/h 0,0 mm/h N 0,000 klux 0,0 W/qm 0,0 nein - 01:25
01:30-2,2 °C 92 % 1039,7 hPa 0,0 mm 0,0 mm nein 0,0 km/h 0,0 km/h 0,0 mm/h N 0,000 klux 0,0 W/qm 0,0 nein - 01:30
01:35-2,2 °C 92 % 1039,7 hPa 0,0 mm 0,0 mm nein 0,0 km/h 0,0 km/h 0,0 mm/h N 0,000 klux 0,0 W/qm 0,0 nein - 01:35
01:40-2,2 °C 92 % 1039,7 hPa 0,0 mm 0,0 mm nein 0,0 km/h 0,0 km/h 0,0 mm/h N 0,000 klux 0,0 W/qm 0,0 nein - 01:40
01:45-2,2 °C 92 % 1039,5 hPa 0,0 mm 0,0 mm nein 0,0 km/h 0,0 km/h 0,0 mm/h N 0,000 klux 0,0 W/qm 0,0 nein - 01:45
01:50-2,2 °C 92 % 1039,4 hPa 0,0 mm 0,0 mm nein 0,0 km/h 0,0 km/h 0,0 mm/h N 0,000 klux 0,0 W/qm 0,0 nein - 01:50
01:55-2,2 °C 92 % 1039,5 hPa 0,0 mm 0,0 mm nein 0,0 km/h 0,0 km/h 0,0 mm/h N 0,000 klux 0,0 W/qm 0,0 nein - 01:55
UhrzeitTemperaturFeuchteLuftdruckNiederschlagEvapotranspirationNiederschlag?WindWindböenRegenrateWindrichtungHelligkeitSolarstrahlungUV-IndexSonne?Feinstaub 10µmUhrzeit
02:00-2,2 °C 92 % 1039,4 hPa 0,0 mm 0,0 mm nein 0,0 km/h 0,0 km/h 0,0 mm/h N 0,000 klux 0,0 W/qm 0,0 nein - 02:00
02:05-2,2 °C 92 % 1039,4 hPa 0,0 mm 0,0 mm nein 0,0 km/h 0,0 km/h 0,0 mm/h N 0,000 klux 0,0 W/qm 0,0 nein - 02:05
02:10-2,2 °C 92 % 1039,3 hPa 0,0 mm 0,0 mm nein 0,0 km/h 0,0 km/h 0,0 mm/h N 0,000 klux 0,0 W/qm 0,0 nein - 02:10
02:15-2,2 °C 92 % 1039,3 hPa 0,0 mm 0,0 mm nein 0,0 km/h 0,0 km/h 0,0 mm/h N 0,000 klux 0,0 W/qm 0,0 nein - 02:15
02:20-2,2 °C 92 % 1039,3 hPa 0,0 mm 0,0 mm nein 0,0 km/h 0,0 km/h 0,0 mm/h N 0,000 klux 0,0 W/qm 0,0 nein - 02:20
02:25-2,2 °C 92 % 1039,4 hPa 0,0 mm 0,0 mm nein 0,0 km/h 0,0 km/h 0,0 mm/h N 0,000 klux 0,0 W/qm 0,0 nein - 02:25
02:30-2,2 °C 92 % 1039,4 hPa 0,0 mm 0,0 mm nein 0,0 km/h 0,0 km/h 0,0 mm/h N 0,000 klux 0,0 W/qm 0,0 nein - 02:30
02:35-2,2 °C 92 % 1039,3 hPa 0,0 mm 0,0 mm nein 0,0 km/h 0,0 km/h 0,0 mm/h N 0,000 klux 0,0 W/qm 0,0 nein - 02:35
02:40-2,2 °C 92 % 1039,2 hPa 0,0 mm 0,0 mm nein 0,0 km/h 0,0 km/h 0,0 mm/h N 0,000 klux 0,0 W/qm 0,0 nein - 02:40
02:45-2,2 °C 92 % 1039,1 hPa 0,0 mm 0,0 mm nein 0,0 km/h 0,0 km/h 0,0 mm/h N 0,000 klux 0,0 W/qm 0,0 nein - 02:45
02:50-2,2 °C 92 % 1039,0 hPa 0,0 mm 0,0 mm nein 0,0 km/h 0,0 km/h 0,0 mm/h N 0,000 klux 0,0 W/qm 0,0 nein - 02:50
02:55-2,2 °C 92 % 1038,9 hPa 0,0 mm 0,0 mm nein 0,0 km/h 0,0 km/h 0,0 mm/h N 0,000 klux 0,0 W/qm 0,0 nein - 02:55
03:00-2,8 °C 92 % 1039,0 hPa 0,0 mm 0,0 mm nein 0,0 km/h 1,6 km/h 0,0 mm/h S 0,000 klux 0,0 W/qm 0,0 nein - 03:00
03:05-2,8 °C 92 % 1038,9 hPa 0,0 mm 0,0 mm nein 0,0 km/h 0,0 km/h 0,0 mm/h N 0,000 klux 0,0 W/qm 0,0 nein - 03:05
03:10-2,8 °C 92 % 1038,9 hPa 0,0 mm 0,0 mm nein 0,0 km/h 1,6 km/h 0,0 mm/h SSO 0,000 klux 0,0 W/qm 0,0 nein - 03:10
03:15-2,8 °C 92 % 1038,8 hPa 0,0 mm 0,0 mm nein 0,0 km/h 8,0 km/h 0,0 mm/h SSO 0,000 klux 0,0 W/qm 0,0 nein - 03:15
03:20-2,8 °C 92 % 1038,9 hPa 0,0 mm 0,0 mm nein 0,0 km/h 8,0 km/h 0,0 mm/h SO 0,000 klux 0,0 W/qm 0,0 nein - 03:20
03:25-2,8 °C 92 % 1038,9 hPa 0,0 mm 0,0 mm nein 0,0 km/h 0,0 km/h 0,0 mm/h N 0,000 klux 0,0 W/qm 0,0 nein - 03:25
03:30-2,8 °C 92 % 1038,8 hPa 0,0 mm 0,0 mm nein 0,0 km/h 3,2 km/h 0,0 mm/h S 0,000 klux 0,0 W/qm 0,0 nein - 03:30
03:35-2,8 °C 92 % 1038,8 hPa 0,0 mm 0,0 mm nein 0,0 km/h 0,0 km/h 0,0 mm/h N 0,000 klux 0,0 W/qm 0,0 nein - 03:35
03:40-2,8 °C 92 % 1038,8 hPa 0,0 mm 0,0 mm nein 0,0 km/h 0,0 km/h 0,0 mm/h N 0,000 klux 0,0 W/qm 0,0 nein - 03:40
03:45-2,8 °C 92 % 1038,8 hPa 0,0 mm 0,0 mm nein 0,0 km/h 0,0 km/h 0,0 mm/h N 0,000 klux 0,0 W/qm 0,0 nein - 03:45
03:50-2,8 °C 92 % 1038,8 hPa 0,0 mm 0,0 mm nein 0,0 km/h 1,6 km/h 0,0 mm/h S 0,000 klux 0,0 W/qm 0,0 nein - 03:50
03:55-2,8 °C 92 % 1038,7 hPa 0,0 mm 0,0 mm nein 0,0 km/h 0,0 km/h 0,0 mm/h N 0,000 klux 0,0 W/qm 0,0 nein - 03:55
UhrzeitTemperaturFeuchteLuftdruckNiederschlagEvapotranspirationNiederschlag?WindWindböenRegenrateWindrichtungHelligkeitSolarstrahlungUV-IndexSonne?Feinstaub 10µmUhrzeit
04:00-2,8 °C 92 % 1038,5 hPa 0,0 mm 0,0 mm nein 0,0 km/h 0,0 km/h 0,0 mm/h N 0,000 klux 0,0 W/qm 0,0 nein - 04:00
04:05-2,8 °C 92 % 1038,5 hPa 0,0 mm 0,0 mm nein 0,0 km/h 0,0 km/h 0,0 mm/h N 0,000 klux 0,0 W/qm 0,0 nein - 04:05
04:10-2,8 °C 92 % 1038,5 hPa 0,0 mm 0,0 mm nein 0,0 km/h 0,0 km/h 0,0 mm/h N 0,000 klux 0,0 W/qm 0,0 nein - 04:10
04:15-2,8 °C 92 % 1038,3 hPa 0,0 mm 0,0 mm nein 0,0 km/h 0,0 km/h 0,0 mm/h N 0,000 klux 0,0 W/qm 0,0 nein - 04:15
04:20-2,8 °C 92 % 1038,3 hPa 0,0 mm 0,0 mm nein 0,0 km/h 0,0 km/h 0,0 mm/h N 0,000 klux 0,0 W/qm 0,0 nein - 04:20
04:25-2,8 °C 92 % 1038,3 hPa 0,0 mm 0,0 mm nein 0,0 km/h 0,0 km/h 0,0 mm/h N 0,000 klux 0,0 W/qm 0,0 nein - 04:25
04:30-2,8 °C 92 % 1038,3 hPa 0,0 mm 0,0 mm nein 0,0 km/h 0,0 km/h 0,0 mm/h N 0,000 klux 0,0 W/qm 0,0 nein - 04:30
04:35-2,8 °C 92 % 1038,4 hPa 0,0 mm 0,0 mm nein 0,0 km/h 0,0 km/h 0,0 mm/h N 0,000 klux 0,0 W/qm 0,0 nein - 04:35
04:40-2,8 °C 92 % 1038,4 hPa 0,0 mm 0,0 mm nein 0,0 km/h 0,0 km/h 0,0 mm/h N 0,000 klux 0,0 W/qm 0,0 nein - 04:40
04:45-2,8 °C 92 % 1038,3 hPa 0,0 mm 0,0 mm nein 0,0 km/h 0,0 km/h 0,0 mm/h N 0,000 klux 0,0 W/qm 0,0 nein - 04:45
04:50-2,8 °C 92 % 1038,4 hPa 0,0 mm 0,0 mm nein 0,0 km/h 0,0 km/h 0,0 mm/h N 0,000 klux 0,0 W/qm 0,0 nein - 04:50
04:55-2,8 °C 92 % 1038,4 hPa 0,0 mm 0,0 mm nein 0,0 km/h 0,0 km/h 0,0 mm/h N 0,000 klux 0,0 W/qm 0,0 nein - 04:55
05:00-2,8 °C 92 % 1038,4 hPa 0,0 mm 0,0 mm nein 0,0 km/h 0,0 km/h 0,0 mm/h N 0,000 klux 0,0 W/qm 0,0 nein - 05:00
05:05-2,8 °C 92 % 1038,5 hPa 0,0 mm 0,0 mm nein 0,0 km/h 0,0 km/h 0,0 mm/h N 0,000 klux 0,0 W/qm 0,0 nein - 05:05
05:10-2,8 °C 92 % 1038,4 hPa 0,0 mm 0,0 mm nein 0,0 km/h 0,0 km/h 0,0 mm/h N 0,000 klux 0,0 W/qm 0,0 nein - 05:10
05:15-3,3 °C 92 % 1038,5 hPa 0,0 mm 0,0 mm nein 0,0 km/h 0,0 km/h 0,0 mm/h N 0,000 klux 0,0 W/qm 0,0 nein - 05:15
05:20-3,3 °C 92 % 1038,5 hPa 0,0 mm 0,0 mm nein 0,0 km/h 0,0 km/h 0,0 mm/h N 0,000 klux 0,0 W/qm 0,0 nein - 05:20
05:25-3,3 °C 92 % 1038,5 hPa 0,0 mm 0,0 mm nein 0,0 km/h 0,0 km/h 0,0 mm/h N 0,000 klux 0,0 W/qm 0,0 nein - 05:25
05:30-3,3 °C 92 % 1038,6 hPa 0,0 mm 0,0 mm nein 0,0 km/h 0,0 km/h 0,0 mm/h N 0,000 klux 0,0 W/qm 0,0 nein - 05:30
05:35-3,3 °C 92 % 1038,5 hPa 0,0 mm 0,0 mm nein 0,0 km/h 0,0 km/h 0,0 mm/h N 0,000 klux 0,0 W/qm 0,0 nein - 05:35
05:40-3,3 °C 92 % 1038,3 hPa 0,0 mm 0,0 mm nein 0,0 km/h 0,0 km/h 0,0 mm/h N 0,000 klux 0,0 W/qm 0,0 nein - 05:40
05:45-3,3 °C 92 % 1038,4 hPa 0,0 mm 0,0 mm nein 0,0 km/h 0,0 km/h 0,0 mm/h N 0,000 klux 0,0 W/qm 0,0 nein - 05:45
05:50-3,3 °C 92 % 1038,4 hPa 0,0 mm 0,0 mm nein 0,0 km/h 0,0 km/h 0,0 mm/h N 0,000 klux 0,0 W/qm 0,0 nein - 05:50
05:55-3,3 °C 92 % 1038,6 hPa 0,0 mm 0,0 mm nein 0,0 km/h 0,0 km/h 0,0 mm/h N 0,000 klux 0,0 W/qm 0,0 nein - 05:55
UhrzeitTemperaturFeuchteLuftdruckNiederschlagEvapotranspirationNiederschlag?WindWindböenRegenrateWindrichtungHelligkeitSolarstrahlungUV-IndexSonne?Feinstaub 10µmUhrzeit
06:00-3,3 °C 92 % 1038,6 hPa 0,0 mm 0,0 mm nein 0,0 km/h 0,0 km/h 0,0 mm/h N 0,000 klux 0,0 W/qm 0,0 nein - 06:00
06:05-3,3 °C 92 % 1038,6 hPa 0,0 mm 0,0 mm nein 0,0 km/h 1,6 km/h 0,0 mm/h N 0,000 klux 0,0 W/qm 0,0 nein - 06:05
06:10-3,3 °C 92 % 1038,6 hPa 0,0 mm 0,0 mm nein 0,0 km/h 0,0 km/h 0,0 mm/h N 0,000 klux 0,0 W/qm 0,0 nein - 06:10
06:15-3,3 °C 92 % 1038,6 hPa 0,0 mm 0,0 mm nein 0,0 km/h 1,6 km/h 0,0 mm/h NNO 0,000 klux 0,0 W/qm 0,0 nein - 06:15
06:20-3,3 °C 92 % 1038,6 hPa 0,0 mm 0,0 mm nein 0,0 km/h 0,0 km/h 0,0 mm/h N 0,000 klux 0,0 W/qm 0,0 nein - 06:20
06:25-3,3 °C 92 % 1038,4 hPa 0,0 mm 0,0 mm nein 0,0 km/h 0,0 km/h 0,0 mm/h N 0,000 klux 0,0 W/qm 0,0 nein - 06:25
06:30-3,3 °C 92 % 1038,4 hPa 0,0 mm 0,0 mm nein 0,0 km/h 0,0 km/h 0,0 mm/h N 0,000 klux 0,0 W/qm 0,0 nein - 06:30
06:35-3,3 °C 92 % 1038,5 hPa 0,0 mm 0,0 mm nein 0,0 km/h 0,0 km/h 0,0 mm/h N 0,000 klux 0,0 W/qm 0,0 nein - 06:35
06:40-3,3 °C 92 % 1038,4 hPa 0,0 mm 0,0 mm nein 0,0 km/h 0,0 km/h 0,0 mm/h N 0,000 klux 0,0 W/qm 0,0 nein - 06:40
06:45-3,3 °C 92 % 1038,4 hPa 0,0 mm 0,0 mm nein 0,0 km/h 0,0 km/h 0,0 mm/h N 0,000 klux 0,0 W/qm 0,0 nein - 06:45
06:50-3,3 °C 92 % 1038,5 hPa 0,0 mm 0,0 mm nein 0,0 km/h 0,0 km/h 0,0 mm/h N 0,000 klux 0,0 W/qm 0,0 nein - 06:50
06:55-3,3 °C 92 % 1038,4 hPa 0,0 mm 0,0 mm nein 0,0 km/h 0,0 km/h 0,0 mm/h N 0,000 klux 0,0 W/qm 0,0 nein - 06:55
07:00-3,3 °C 92 % 1038,3 hPa 0,0 mm 0,0 mm nein 0,0 km/h 0,0 km/h 0,0 mm/h N 0,000 klux 0,0 W/qm 0,0 nein - 07:00
07:05-3,3 °C 92 % 1038,4 hPa 0,0 mm 0,0 mm nein 0,0 km/h 0,0 km/h 0,0 mm/h N 0,000 klux 0,0 W/qm 0,0 nein - 07:05
07:10-3,3 °C 92 % 1038,3 hPa 0,0 mm 0,0 mm nein 0,0 km/h 0,0 km/h 0,0 mm/h N 0,000 klux 0,0 W/qm 0,0 nein - 07:10
07:15-3,3 °C 92 % 1038,2 hPa 0,0 mm 0,0 mm nein 0,0 km/h 0,0 km/h 0,0 mm/h N 0,000 klux 0,0 W/qm 0,0 nein - 07:15
07:20-3,3 °C 92 % 1038,2 hPa 0,0 mm 0,0 mm nein 0,0 km/h 0,0 km/h 0,0 mm/h N 0,000 klux 0,0 W/qm 0,0 nein - 07:20
07:25-3,3 °C 92 % 1038,2 hPa 0,0 mm 0,0 mm nein 0,0 km/h 0,0 km/h 0,0 mm/h N 0,000 klux 0,0 W/qm 0,0 nein - 07:25
07:30-3,3 °C 92 % 1038,1 hPa 0,0 mm 0,0 mm nein 0,0 km/h 0,0 km/h 0,0 mm/h N 0,000 klux 0,0 W/qm 0,0 nein - 07:30
07:35-3,3 °C 92 % 1038,1 hPa 0,0 mm 0,0 mm nein 0,0 km/h 0,0 km/h 0,0 mm/h N 0,000 klux 0,0 W/qm 0,0 nein - 07:35
07:40-3,3 °C 92 % 1038,1 hPa 0,0 mm 0,0 mm nein 0,0 km/h 0,0 km/h 0,0 mm/h N 0,000 klux 0,0 W/qm 0,0 nein - 07:40
07:45-3,3 °C 92 % 1038,1 hPa 0,0 mm 0,0 mm nein 0,0 km/h 0,0 km/h 0,0 mm/h N 0,000 klux 0,0 W/qm 0,0 nein - 07:45
07:50-3,3 °C 92 % 1038,3 hPa 0,0 mm 0,0 mm nein 0,0 km/h 0,0 km/h 0,0 mm/h N 0,000 klux 0,0 W/qm 0,0 nein - 07:50
07:55-3,3 °C 93 % 1038,7 hPa 0,0 mm 0,0 mm nein 0,0 km/h 0,0 km/h 0,0 mm/h N 0,000 klux 0,0 W/qm 0,0 nein - 07:55
UhrzeitTemperaturFeuchteLuftdruckNiederschlagEvapotranspirationNiederschlag?WindWindböenRegenrateWindrichtungHelligkeitSolarstrahlungUV-IndexSonne?Feinstaub 10µmUhrzeit
08:00-3,3 °C 93 % 1038,9 hPa 0,0 mm 0,0 mm nein 0,0 km/h 0,0 km/h 0,0 mm/h N 0,000 klux 0,0 W/qm 0,0 nein - 08:00
08:05-3,3 °C 93 % 1038,9 hPa 0,0 mm 0,0 mm nein 0,0 km/h 0,0 km/h 0,0 mm/h N 0,000 klux 0,0 W/qm 0,0 nein - 08:05
08:10-3,3 °C 93 % 1038,9 hPa 0,0 mm 0,0 mm nein 0,0 km/h 0,0 km/h 0,0 mm/h N 0,000 klux 0,0 W/qm 0,0 nein - 08:10
08:15-3,3 °C 93 % 1038,9 hPa 0,0 mm 0,0 mm nein 0,0 km/h 0,0 km/h 0,0 mm/h N 0,000 klux 0,0 W/qm 0,0 nein - 08:15
08:20-3,3 °C 93 % 1038,8 hPa 0,0 mm 0,0 mm nein 0,0 km/h 0,0 km/h 0,0 mm/h N 0,000 klux 0,0 W/qm 0,0 nein - 08:20
08:25-3,3 °C 93 % 1038,8 hPa 0,0 mm 0,0 mm nein 0,0 km/h 0,0 km/h 0,0 mm/h N 0,000 klux 0,0 W/qm 0,0 nein - 08:25
08:30-3,3 °C 93 % 1038,6 hPa 0,0 mm 0,0 mm nein 0,0 km/h 0,0 km/h 0,0 mm/h N 0,823 klux 5,0 W/qm 0,0 nein - 08:30
08:35-3,3 °C 93 % 1038,5 hPa 0,0 mm 0,0 mm nein 0,0 km/h 0,0 km/h 0,0 mm/h N 1,312 klux 8,0 W/qm 0,0 nein - 08:35
08:40-3,3 °C 93 % 1038,5 hPa 0,0 mm 0,0 mm nein 0,0 km/h 0,0 km/h 0,0 mm/h N 1,635 klux 10,0 W/qm 0,0 nein - 08:40
08:45-3,3 °C 93 % 1038,4 hPa 0,0 mm 0,0 mm nein 0,0 km/h 0,0 km/h 0,0 mm/h N 1,955 klux 12,0 W/qm 0,0 nein - 08:45
08:50-3,3 °C 93 % 1038,5 hPa 0,0 mm 0,0 mm nein 0,0 km/h 0,0 km/h 0,0 mm/h N 2,110 klux 13,0 W/qm 0,0 nein - 08:50
08:55-2,8 °C 93 % 1038,3 hPa 0,0 mm 0,0 mm nein 0,0 km/h 0,0 km/h 0,0 mm/h N 2,589 klux 16,0 W/qm 0,0 nein - 08:55
09:00-2,8 °C 93 % 1038,2 hPa 0,0 mm 0,0 mm nein 0,0 km/h 0,0 km/h 0,0 mm/h N 3,387 klux 21,0 W/qm 0,0 nein - 09:00
09:05-2,8 °C 93 % 1038,3 hPa 0,0 mm 0,0 mm nein 0,0 km/h 0,0 km/h 0,0 mm/h N 3,858 klux 24,0 W/qm 0,0 nein - 09:05
09:10-2,8 °C 93 % 1038,4 hPa 0,0 mm 0,0 mm nein 0,0 km/h 0,0 km/h 0,0 mm/h N 3,845 klux 24,0 W/qm 0,0 nein - 09:10
09:15-2,8 °C 93 % 1038,3 hPa 0,0 mm 0,0 mm nein 0,0 km/h 0,0 km/h 0,0 mm/h N 3,993 klux 25,0 W/qm 0,0 nein - 09:15
09:20-2,8 °C 93 % 1038,2 hPa 0,0 mm 0,0 mm nein 0,0 km/h 0,0 km/h 0,0 mm/h N 4,935 klux 31,0 W/qm 0,0 nein - 09:20
09:25-2,8 °C 93 % 1038,1 hPa 0,0 mm 0,0 mm nein 0,0 km/h 0,0 km/h 0,0 mm/h N 5,396 klux 34,0 W/qm 0,0 nein - 09:25
09:30-2,8 °C 93 % 1038,3 hPa 0,0 mm 0,0 mm nein 0,0 km/h 0,0 km/h 0,0 mm/h N 6,487 klux 41,0 W/qm 0,0 nein - 09:30
09:35-2,8 °C 93 % 1038,3 hPa 0,0 mm 0,0 mm nein 0,0 km/h 0,0 km/h 0,0 mm/h N 7,099 klux 45,0 W/qm 0,0 nein - 09:35
09:40-2,8 °C 93 % 1038,4 hPa 0,0 mm 0,0 mm nein 0,0 km/h 0,0 km/h 0,0 mm/h N 6,606 klux 42,0 W/qm 0,0 nein - 09:40
09:45-2,8 °C 93 % 1038,1 hPa 0,0 mm 0,0 mm nein 0,0 km/h 0,0 km/h 0,0 mm/h N 6,430 klux 41,0 W/qm 0,0 nein - 09:45
09:50-2,8 °C 93 % 1038,0 hPa 0,0 mm 0,0 mm nein 0,0 km/h 0,0 km/h 0,0 mm/h N 7,663 klux 49,0 W/qm 0,0 nein - 09:50
09:55-2,8 °C 93 % 1037,8 hPa 0,0 mm 0,0 mm nein 0,0 km/h 0,0 km/h 0,0 mm/h N 8,422 klux 54,0 W/qm 0,0 nein - 09:55
UhrzeitTemperaturFeuchteLuftdruckNiederschlagEvapotranspirationNiederschlag?WindWindböenRegenrateWindrichtungHelligkeitSolarstrahlungUV-IndexSonne?Feinstaub 10µmUhrzeit
10:00-2,8 °C 93 % 1037,7 hPa 0,0 mm 0,0 mm nein 0,0 km/h 1,6 km/h 0,0 mm/h SO 9,954 klux 64,0 W/qm 0,0 nein - 10:00
10:05-2,8 °C 93 % 1037,8 hPa 0,0 mm 0,0 mm nein 0,0 km/h 4,8 km/h 0,0 mm/h S 11,014 klux 71,0 W/qm 0,0 nein - 10:05
10:10-2,8 °C 93 % 1037,9 hPa 0,0 mm 0,0 mm nein 0,0 km/h 1,6 km/h 0,0 mm/h S 10,212 klux 66,0 W/qm 0,0 nein - 10:10
10:15-2,8 °C 93 % 1037,8 hPa 0,0 mm 0,0 mm nein 0,0 km/h 0,0 km/h 0,0 mm/h N 10,187 klux 66,0 W/qm 0,0 nein - 10:15
10:20-2,8 °C 93 % 1037,9 hPa 0,0 mm 0,0 mm nein 0,0 km/h 9,7 km/h 0,0 mm/h S 10,470 klux 68,0 W/qm 0,0 nein - 10:20
10:25-2,8 °C 93 % 1037,9 hPa 0,0 mm 0,0 mm nein 0,0 km/h 0,0 km/h 0,0 mm/h N 11,674 klux 76,0 W/qm 0,0 nein - 10:25
10:30-2,8 °C 93 % 1037,9 hPa 0,0 mm 0,0 mm nein 0,0 km/h 0,0 km/h 0,0 mm/h N 11,187 klux 73,0 W/qm 0,0 nein - 10:30
10:35-2,8 °C 93 % 1038,0 hPa 0,0 mm 0,0 mm nein 0,0 km/h 0,0 km/h 0,0 mm/h N 10,857 klux 71,0 W/qm 0,0 nein - 10:35
10:40-2,8 °C 92 % 1038,0 hPa 0,0 mm 0,0 mm nein 0,0 km/h 0,0 km/h 0,0 mm/h N 13,275 klux 87,0 W/qm 0,0 nein - 10:40
10:45-2,8 °C 92 % 1037,9 hPa 0,0 mm 0,0 mm nein 0,0 km/h 0,0 km/h 0,0 mm/h N 13,400 klux 88,0 W/qm 0,0 nein - 10:45
10:50-2,8 °C 92 % 1037,9 hPa 0,0 mm 0,0 mm nein 0,0 km/h 0,0 km/h 0,0 mm/h N 15,958 klux 105,0 W/qm 0,0 nein - 10:50
10:55-2,8 °C 92 % 1037,8 hPa 0,0 mm 0,0 mm nein 0,0 km/h 0,0 km/h 0,0 mm/h N 15,624 klux 103,0 W/qm 0,0 nein - 10:55
11:00-2,8 °C 92 % 1037,9 hPa 0,0 mm 0,0 mm nein 0,0 km/h 3,2 km/h 0,0 mm/h OSO 17,111 klux 113,0 W/qm 0,0 nein - 11:00
11:05-2,8 °C 92 % 1038,0 hPa 0,0 mm 0,0 mm nein 0,0 km/h 0,0 km/h 0,0 mm/h N 14,814 klux 98,0 W/qm 0,0 nein - 11:05
11:10-2,2 °C 91 % 1037,8 hPa 0,0 mm 0,0 mm nein 0,0 km/h 0,0 km/h 0,0 mm/h N 15,394 klux 102,0 W/qm 0,0 nein - 11:10
11:15-2,2 °C 91 % 1038,0 hPa 0,0 mm 0,0 mm nein 0,0 km/h 1,6 km/h 0,0 mm/h W 13,863 klux 92,0 W/qm 0,0 nein - 11:15
11:20-2,2 °C 90 % 1038,3 hPa 0,0 mm 0,0 mm nein 0,0 km/h 0,0 km/h 0,0 mm/h N 13,542 klux 90,0 W/qm 0,0 nein - 11:20
Gesamt: -2,8 °C 92 % 1038,8 hPa 0,0 mm 0,0 mm nein 0,0 km/h 0,4 km/h 0,0 mm/h 0 2,168 klux 14,1 W/qm 0,0 nein nan µg/m³

Insgesamt 137 Zeilen mal 15 Spalten = 2055 Werte werden angezeigt.

www.wetter-rosstal.de   •   www.wetter-franken.de   •   www.lightningmaps.org   •   Start   •   Kontakt / Datenschutz   •   PC-Kümmerer